Home > Weather > Honningsvåg > Past weeks

Flag for Norway Past Weather in Honningsvåg, Norway — Yesterday and Last 2 Weeks

Now
54 °F

Broken clouds.


Feels Like: 49 °F
Forecast: 50 / 54 °F
Wind: 16 mph from Southeast

Location: Honningsvag / Valan

Current Time: Jul 29, 2016 at 7:59:17 AM

Latest Report: Jul 29, 2016 at 6:50 AM


Visibility: N/A

Pressure: 29.80 "Hg

Humidity: 77%

Dew Point: 46 °F

Location of HonningsvågLocation

Past Weather in Honningsvåg — Graph

°F

Honningsvåg Temperature Yesterday

Maximum temperature yesterday: 57 °F (at 1:50 PM)
Minimum temperature yesterday: 52 °F (at 5:50 AM)
Average temperature yesterday: 55 °F

High & Low Weather Summary for the Past Weeks

 TemperatureHumidityPressure
High66 °F (Jul 17, 1:50 PM)88% (Jul 27, 3:50 PM)30.24 "Hg (Jul 27, 3:50 PM)
Low46 °F (Jul 26, 5:50 AM)44% (Jul 20, 10:50 AM)29.45 "Hg (Jul 17, 11:50 AM)
Average53 °F73%29.94 "Hg
* Reported Jul 14 5:50 AM — Jul 29 5:50 AM, Honningsvåg, Weather by CustomWeather, © 2016

Note: Actual official high and low records may vary slightly from our data, if they occured in-between our weather recording intervals... More about our weather records

Advertising

Honningsvåg Weather History for the Previous 24 Hours

Scroll right to see more
 ConditionsComfort  
Time TempWeatherWind HumidityBarometerVisibility
5:50 AM
Fri, Jul 29
54 °FBroken clouds.17 mph77%29.83 "HgN/A
9:50 PM
Thu, Jul 28
55 °FScattered clouds.15 mph67%29.92 "HgN/A
8:50 PM57 °FScattered clouds.14 mph63%29.92 "HgN/A
7:50 PM55 °FPartly sunny.22 mph72%29.92 "HgN/A
6:50 PM55 °FPartly sunny.25 mph72%29.95 "HgN/A
5:50 PM55 °FPartly sunny.24 mph72%29.95 "HgN/A
4:50 PM57 °FPartly sunny.26 mph67%29.95 "HgN/A
3:50 PM55 °FBroken clouds.25 mph72%29.95 "HgN/A
2:50 PM55 °FBroken clouds.24 mph72%29.98 "HgN/A
1:50 PM57 °FBroken clouds.28 mph67%29.98 "HgN/A
12:50 PM55 °FBroken clouds.21 mph72%29.98 "HgN/A
11:50 AM55 °FBroken clouds.18 mph72%29.98 "HgN/A
10:50 AM54 °FBroken clouds.23 mph77%29.98 "HgN/A
9:50 AM52 °FPartly sunny.20 mph82%29.98 "HgN/A
8:50 AM52 °FPartly sunny.16 mph82%29.98 "HgN/A
7:50 AM52 °FBroken clouds.23 mph82%29.95 "HgN/A
Weather by CustomWeather, © 2016

See weather overviewHow to use our weather pages